Flag for Germany Weather past 2 weeks in Hoyerswerda, Saxony, Germany

46 °F

Passing clouds.

Feels Like: 39 °F
Forecast: 41 / 49 °F
Wind: 20 mph from West

Location: Holzdorf

Current Time: Nov 30, 2015 at 3:42:17 AM

Latest Report: Nov 30, 2015 at 2:20 AM

Visibility: N/A

Pressure: 29.68 "Hg

Humidity: 76%

Dew point: 39 °F

Location of HoyerswerdaLocation

Historic Weather in Hoyerswerda — Graph


Hoyerswerda temperature yesterday

Maximum temperature yesterday: 50 °F (at 10:20 PM)
Minimum temperature yesterday: 34 °F (at 12:20 AM)
Average temperature yesterday: 42 °F

Past Weeks' High & Low Weather Summary

High59 °F (Nov 18, 3:20 AM)100% (Nov 15, 1:20 AM)30.24 "Hg (Nov 15, 1:20 AM)
Low27 °F (Nov 24, 1:20 AM)55% (Nov 19, 1:20 PM)29.36 "Hg (Nov 21, 1:20 PM)
Average42 °F86%29.80 "Hg
* Reported Nov 15 1:20 AM — Nov 30 1:20 AM, Hoyerswerda, Weather by CustomWeather, © 2015

Note: Actual official high and low records may vary slightly from our data, if they occured in-between our weather recording intervals... More about our weather records


Hoyerswerda weather history for previous 24 hours

Time TempWeatherWind HumidityBarometerVisibility
1:20 AM
Mon, Nov 30
46 °FPassing clouds.18 mph87%29.65 "HgN/A
12:20 AM48 °FHeavy rain. Fog.30 mph94%29.65 "Hg2 mi
12:02 AM48 °FRain. Fog.26 mph87%29.62 "Hg2 mi
11:20 PM
Sun, Nov 29
48 °FRain. Passing clouds.23 mph87%29.59 "Hg4 mi
10:20 PM50 °FPartly cloudy.23 mph76%29.62 "HgN/A
9:20 PM48 °FPassing clouds.18 mph82%29.65 "HgN/A
8:20 PM46 °FPassing clouds.15 mph87%29.68 "HgN/A
7:20 PM43 °FLight rain. Partly cloudy.14 mph93%29.71 "HgN/A
6:20 PM43 °FLight rain. Passing clouds.14 mph93%29.74 "HgN/A
5:20 PM45 °FPassing clouds.13 mph81%29.77 "HgN/A
4:20 PM45 °FPartly cloudy.15 mph81%29.77 "HgN/A
3:20 PM43 °FLight rain. More clouds than sun.13 mph87%29.77 "HgN/A
2:20 PM43 °FLight rain. More clouds than sun.15 mph87%29.77 "HgN/A
1:20 PM43 °FMostly cloudy.13 mph87%29.77 "HgN/A
12:20 PM43 °FSprinkles. Mostly cloudy.15 mph87%29.80 "HgN/A
11:20 AM43 °FSprinkles. Mostly cloudy.15 mph81%29.80 "HgN/A
10:20 AM43 °FMostly cloudy.16 mph76%29.80 "HgN/A
9:20 AM41 °FMostly cloudy.15 mph81%29.80 "HgN/A
8:20 AM39 °FMostly cloudy.12 mph87%29.80 "HgN/A
7:20 AM39 °FLight rain. Passing clouds.12 mph87%29.80 "HgN/A
6:20 AM39 °FPassing clouds.15 mph87%29.80 "HgN/A
5:20 AM37 °FLight rain. Partly cloudy.13 mph87%29.80 "Hg4 mi
4:20 AM37 °FLight rain. Partly cloudy.14 mph81%29.83 "Hg6 mi
3:20 AM36 °FPassing clouds.10 mph87%29.83 "HgN/A
Weather by CustomWeather, © 2015

See weather overviewHow to use our weather pages